Time,TemperatureF,DewpointF,PressureIn,WindDirection,WindDirectionDegrees,WindSpeedMPH,WindSpeedGustMPH,Humidity,HourlyPrecipIn,Conditions,Clouds,dailyrainin,SoftwareType,DateUTC
2013-02-23 05:50:00,7.3,2.2,30.11,SSE,158,0.0,1.0,79,0.00,,---,0.00,VWS V14.01,2013-02-23 12:50:00,
2013-02-23 06:05:00,7.3,2.2,30.11,SSE,158,0.0,1.0,79,0.00,,---,0.00,VWS V14.01,2013-02-23 13:05:00,
2013-02-23 06:10:00,6.3,0.9,30.11,SSE,157,0.0,0.0,78,0.00,,---,0.00,VWS V14.01,2013-02-23 13:10:00,
2013-02-23 06:15:00,6.4,1.3,30.11,SSE,158,1.0,2.0,79,0.00,,---,0.00,VWS V14.01,2013-02-23 13:15:00,
2013-02-23 06:20:00,6.6,1.5,30.09,SSE,158,0.0,0.0,79,0.00,,---,0.00,VWS V14.01,2013-02-23 13:20:00,
2013-02-23 06:25:00,6.9,1.8,30.09,SSE,157,0.0,1.0,79,0.00,,---,0.00,VWS V14.01,2013-02-23 13:25:00,
2013-02-23 06:30:00,7.2,1.8,30.10,SSE,157,0.0,2.0,78,0.00,,---,0.00,VWS V14.01,2013-02-23 13:30:00,
2013-02-23 06:35:00,7.3,1.9,30.10,SSE,158,0.0,0.0,78,0.00,,---,0.00,VWS V14.01,2013-02-23 13:35:00,
2013-02-23 06:40:00,7.3,1.9,30.11,SSE,158,0.0,1.0,78,0.00,,---,0.00,VWS V14.01,2013-02-23 13:40:00,
2013-02-23 06:45:00,7.2,1.5,30.11,SSE,158,0.0,0.0,77,0.00,,---,0.00,VWS V14.01,2013-02-23 13:45:00,
2013-02-23 06:50:00,6.9,1.2,30.10,SSE,158,0.0,0.0,77,0.00,,---,0.00,VWS V14.01,2013-02-23 13:50:00,
2013-02-23 06:55:00,6.8,1.1,30.10,SSE,158,0.0,2.0,77,0.00,,---,0.00,VWS V14.01,2013-02-23 13:55:00,
2013-02-23 07:00:00,7.0,1.0,30.10,SSE,157,0.0,2.0,76,0.00,,---,0.00,VWS V14.01,2013-02-23 14:00:00,
2013-02-23 07:05:00,7.2,1.5,30.10,SSE,157,0.0,0.0,77,0.00,,---,0.00,VWS V14.01,2013-02-23 14:05:00,
2013-02-23 07:10:00,7.6,1.9,30.10,SSE,158,0.0,0.0,77,0.00,,---,0.00,VWS V14.01,2013-02-23 14:10:00,
2013-02-23 07:15:00,8.0,2.3,30.10,SSE,158,0.0,0.0,77,0.00,,---,0.00,VWS V14.01,2013-02-23 14:15:00,
2013-02-23 07:20:00,8.7,3.0,30.10,SSE,157,0.0,0.0,77,0.00,,---,0.00,VWS V14.01,2013-02-23 14:20:00,
2013-02-23 07:25:00,9.5,3.8,30.10,SSE,158,0.0,1.0,77,0.00,,---,0.00,VWS V14.01,2013-02-23 14:25:00,
2013-02-23 07:30:00,9.7,3.4,30.09,SSE,158,3.0,4.0,75,0.00,,---,0.00,VWS V14.01,2013-02-23 14:30:00,
2013-02-23 07:35:00,8.5,1.9,30.11,SSE,157,0.0,2.0,74,0.00,,---,0.00,VWS V14.01,2013-02-23 14:35:00,
2013-02-23 07:40:00,8.6,2.6,30.11,SSE,157,0.0,5.0,76,0.00,,---,0.00,VWS V14.01,2013-02-23 14:40:00,
2013-02-23 07:45:00,9.2,3.2,30.11,SSE,158,0.0,1.0,76,0.00,,---,0.00,VWS V14.01,2013-02-23 14:45:00,
2013-02-23 07:50:00,9.7,3.7,30.08,SSE,158,0.0,2.0,76,0.00,,---,0.00,VWS V14.01,2013-02-23 14:50:00,
2013-02-23 07:55:00,10.0,4.0,30.08,SSE,157,1.0,2.0,76,0.00,,---,0.00,VWS V14.01,2013-02-23 14:55:00,
2013-02-23 08:00:00,10.8,4.7,30.08,SSE,158,0.0,1.0,76,0.00,,---,0.00,VWS V14.01,2013-02-23 15:00:00,
2013-02-23 08:05:00,11.0,4.3,30.08,SSE,158,1.0,4.0,74,0.00,,---,0.00,VWS V14.01,2013-02-23 15:05:00,
2013-02-23 08:10:00,11.0,4.3,30.10,SSE,157,2.0,4.0,74,0.00,,---,0.00,VWS V14.01,2013-02-23 15:10:00,
2013-02-23 08:15:00,11.4,5.3,30.11,SSE,158,2.0,3.0,76,0.00,,---,0.00,VWS V14.01,2013-02-23 15:15:00,
2013-02-23 08:20:00,12.1,5.7,30.09,SSE,158,0.0,3.0,75,0.00,,---,0.00,VWS V14.01,2013-02-23 15:20:00,
2013-02-23 08:25:00,13.5,7.4,30.07,SSE,158,1.0,4.0,76,0.00,,---,0.00,VWS V14.01,2013-02-23 15:25:00,
2013-02-23 08:30:00,14.5,8.0,30.07,SSE,157,0.0,0.0,75,0.00,,---,0.00,VWS V14.01,2013-02-23 15:30:00,
2013-02-23 08:35:00,16.5,10.0,30.05,SSE,158,0.0,1.0,75,0.00,,---,0.00,VWS V14.01,2013-02-23 15:35:00,
2013-02-23 08:40:00,18.4,10.6,30.02,SSE,158,0.0,2.0,71,0.00,,---,0.00,VWS V14.01,2013-02-23 15:40:00,
2013-02-23 08:45:00,19.5,10.0,30.03,SSE,157,0.0,2.0,66,0.00,,---,0.00,VWS V14.01,2013-02-23 15:45:00,
2013-02-23 08:50:00,19.9,10.1,30.01,SSE,157,0.0,4.0,65,0.00,,---,0.00,VWS V14.01,2013-02-23 15:50:00,
2013-02-23 08:55:00,19.9,10.1,30.01,SSE,158,1.0,2.0,65,0.00,,---,0.00,VWS V14.01,2013-02-23 15:55:00,
2013-02-23 09:00:00,19.7,10.2,30.01,SSE,157,0.0,4.0,66,0.00,,---,0.00,VWS V14.01,2013-02-23 16:00:00,
2013-02-23 09:05:00,19.7,10.5,30.01,SSE,158,0.0,2.0,67,0.00,,---,0.00,VWS V14.01,2013-02-23 16:05:00,
2013-02-23 09:10:00,20.2,11.0,30.06,SSE,158,1.0,4.0,67,0.00,,---,0.00,VWS V14.01,2013-02-23 16:10:00,
2013-02-23 09:15:00,20.3,10.8,30.06,SSE,157,1.0,5.0,66,0.00,,---,0.00,VWS V14.01,2013-02-23 16:15:00,
2013-02-23 09:20:00,20.2,10.0,30.06,SSE,158,2.0,7.0,64,0.00,,---,0.00,VWS V14.01,2013-02-23 16:20:00,
2013-02-23 09:25:00,20.0,9.1,30.06,SSE,157,4.0,7.0,62,0.00,,---,0.00,VWS V14.01,2013-02-23 16:25:00,
2013-02-23 09:30:00,19.9,8.6,30.07,SSE,158,0.0,7.0,61,0.00,,---,0.00,VWS V14.01,2013-02-23 16:30:00,
2013-02-23 09:35:00,20.6,8.9,30.05,SSE,158,3.0,6.0,60,0.00,,---,0.00,VWS V14.01,2013-02-23 16:35:00,
2013-02-23 09:40:00,21.2,8.4,30.05,SSE,157,0.0,7.0,57,0.00,,---,0.00,VWS V14.01,2013-02-23 16:40:00,
2013-02-23 09:45:00,21.7,8.8,30.05,SSE,158,0.0,5.0,57,0.00,,---,0.00,VWS V14.01,2013-02-23 16:45:00,
2013-02-23 09:50:00,22.6,8.9,30.05,SSE,158,0.0,5.0,55,0.00,,---,0.00,VWS V14.01,2013-02-23 16:50:00,
2013-02-23 09:55:00,23.0,9.7,30.02,SSE,158,0.0,4.0,56,0.00,,---,0.00,VWS V14.01,2013-02-23 16:55:00,
2013-02-23 10:00:00,23.4,9.2,30.02,SSE,158,0.0,2.0,54,0.00,,---,0.00,VWS V14.01,2013-02-23 17:00:00,
2013-02-23 10:05:00,23.8,9.2,30.02,SSE,157,0.0,3.0,53,0.00,,---,0.00,VWS V14.01,2013-02-23 17:05:00,
2013-02-23 10:10:00,24.0,8.9,30.00,SSE,158,0.0,3.0,52,0.00,,---,0.00,VWS V14.01,2013-02-23 17:10:00,
2013-02-23 10:15:00,24.1,9.0,29.99,SSE,158,1.0,5.0,52,0.00,,---,0.00,VWS V14.01,2013-02-23 17:15:00,
2013-02-23 10:20:00,24.7,10.0,30.00,SSE,158,0.0,2.0,53,0.00,,---,0.00,VWS V14.01,2013-02-23 17:20:00,
2013-02-23 10:25:00,25.2,10.1,29.99,SSE,158,0.0,4.0,52,0.00,,---,0.00,VWS V14.01,2013-02-23 17:25:00,
2013-02-23 10:30:00,25.7,9.6,29.96,SSE,158,0.0,6.0,50,0.00,,---,0.00,VWS V14.01,2013-02-23 17:30:00,
2013-02-23 10:35:00,25.9,10.3,29.96,SSE,157,0.0,5.0,51,0.00,,---,0.00,VWS V14.01,2013-02-23 17:35:00,
2013-02-23 10:40:00,26.1,10.9,29.96,SSE,158,0.0,3.0,52,0.00,,---,0.00,VWS V14.01,2013-02-23 17:40:00,
2013-02-23 10:45:00,26.4,10.3,29.96,SSE,158,4.0,4.0,50,0.00,,---,0.00,VWS V14.01,2013-02-23 17:45:00,
2013-02-23 10:50:00,27.0,12.2,29.95,SSE,158,0.0,0.0,53,0.00,,---,0.00,VWS V14.01,2013-02-23 17:50:00,
2013-02-23 10:55:00,27.7,12.4,29.94,SSE,158,0.0,4.0,52,0.00,,---,0.00,VWS V14.01,2013-02-23 17:55:00,
2013-02-23 11:00:00,28.3,12.9,29.94,SSE,157,0.0,2.0,52,0.00,,---,0.00,VWS V14.01,2013-02-23 18:00:00,
2013-02-23 11:05:00,28.9,13.5,29.92,SSE,158,0.0,3.0,52,0.00,,---,0.00,VWS V14.01,2013-02-23 18:05:00,
2013-02-23 11:10:00,29.7,13.4,29.95,SSE,158,4.0,5.0,50,0.00,,---,0.00,VWS V14.01,2013-02-23 18:10:00,
2013-02-23 11:16:00,29.8,14.8,29.94,SSE,158,0.0,5.0,53,0.00,,---,0.00,VWS V14.01,2013-02-23 18:16:00,
2013-02-23 11:21:00,31.2,15.2,29.94,SSE,158,6.0,7.0,51,0.00,,---,0.00,VWS V14.01,2013-02-23 18:21:00,
2013-02-23 11:26:00,30.8,14.8,29.93,SSE,158,0.0,6.0,51,0.00,,---,0.00,VWS V14.01,2013-02-23 18:26:00,
2013-02-23 11:31:00,30.2,13.8,29.92,SSE,157,0.0,8.0,50,0.00,,---,0.00,VWS V14.01,2013-02-23 18:31:00,
2013-02-23 11:36:00,30.5,15.0,29.93,SSE,158,3.0,7.0,52,0.00,,---,0.00,VWS V14.01,2013-02-23 18:36:00,
2013-02-23 11:41:00,30.1,14.6,29.93,SSE,158,5.0,8.0,52,0.00,,---,0.00,VWS V14.01,2013-02-23 18:41:00,
2013-02-23 11:46:00,30.3,15.2,29.92,SSE,158,2.0,6.0,53,0.00,,---,0.00,VWS V14.01,2013-02-23 18:46:00,
2013-02-23 11:51:00,31.3,16.2,29.92,SSE,158,1.0,6.0,53,0.00,,---,0.00,VWS V14.01,2013-02-23 18:51:00,
2013-02-23 11:56:00,32.9,16.8,29.90,SSE,157,6.0,8.0,51,0.00,,---,0.00,VWS V14.01,2013-02-23 18:56:00,
2013-02-23 12:01:00,33.7,18.0,29.88,SSE,160,3.0,13.0,52,0.00,,---,0.00,VWS V14.01,2013-02-23 19:01:00,
2013-02-23 12:06:00,34.4,17.2,29.88,SSE,161,2.0,7.0,49,0.00,,---,0.00,VWS V14.01,2013-02-23 19:06:00,
2013-02-23 12:11:00,35.3,16.1,29.91,SSE,161,1.0,8.0,45,0.00,,---,0.00,VWS V14.01,2013-02-23 19:11:00,
2013-02-23 12:16:00,36.4,15.5,29.92,SSE,165,5.0,10.0,42,0.00,,---,0.00,VWS V14.01,2013-02-23 19:16:00,
2013-02-23 12:21:00,37.1,16.7,29.89,South,173,5.0,11.0,43,0.00,,---,0.00,VWS V14.01,2013-02-23 19:21:00,
2013-02-23 12:26:00,37.4,15.9,29.89,South,173,4.0,8.0,41,0.01,,---,0.01,VWS V14.01,2013-02-23 19:26:00,
2013-02-23 12:31:00,37.1,15.6,29.89,South,173,5.0,9.0,41,0.01,,---,0.01,VWS V14.01,2013-02-23 19:31:00,
2013-02-23 12:36:00,37.5,16.5,29.88,South,178,5.0,9.0,42,0.01,,---,0.01,VWS V14.01,2013-02-23 19:36:00,
2013-02-23 12:41:00,37.9,16.3,29.88,South,178,6.0,9.0,41,0.01,,---,0.01,VWS V14.01,2013-02-23 19:41:00,
2013-02-23 12:46:00,38.2,17.1,29.87,South,178,4.0,5.0,42,0.01,,---,0.01,VWS V14.01,2013-02-23 19:46:00,
2013-02-23 12:51:00,38.8,16.0,29.86,South,178,3.0,7.0,39,0.01,,---,0.01,VWS V14.01,2013-02-23 19:51:00,
2013-02-23 12:56:00,39.9,15.8,29.85,South,178,5.0,8.0,37,0.01,,---,0.01,VWS V14.01,2013-02-23 19:56:00,
2013-02-23 13:01:00,40.7,17.1,29.85,South,178,1.0,6.0,38,0.01,,---,0.01,VWS V14.01,2013-02-23 20:01:00,
2013-02-23 13:06:00,41.8,16.8,29.83,South,178,4.0,7.0,36,0.01,,---,0.01,VWS V14.01,2013-02-23 20:06:00,
2013-02-23 13:11:00,41.7,17.4,29.78,South,178,0.0,10.0,37,0.01,,---,0.01,VWS V14.01,2013-02-23 20:11:00,
2013-02-23 13:16:00,42.6,17.5,29.78,South,178,1.0,9.0,36,0.01,,---,0.01,VWS V14.01,2013-02-23 20:16:00,
2013-02-23 13:21:00,42.2,15.2,29.78,South,180,9.0,10.0,33,0.01,,---,0.01,VWS V14.01,2013-02-23 20:21:00,
2013-02-23 13:26:00,41.8,16.2,29.77,South,182,1.0,11.0,35,0.01,,---,0.01,VWS V14.01,2013-02-23 20:26:00,
2013-02-23 13:31:00,41.9,14.9,29.77,South,182,7.0,7.0,33,0.00,,---,0.01,VWS V14.01,2013-02-23 20:31:00,
2013-02-23 13:36:00,41.2,16.3,29.79,SSW,212,8.0,13.0,36,0.01,,---,0.02,VWS V14.01,2013-02-23 20:36:00,
2013-02-23 13:41:00,40.8,15.3,29.79,SSW,213,9.0,14.0,35,0.01,,---,0.02,VWS V14.01,2013-02-23 20:41:00,
2013-02-23 13:46:00,40.7,17.1,29.78,SSW,213,5.0,11.0,38,0.01,,---,0.02,VWS V14.01,2013-02-23 20:46:00,
2013-02-23 13:51:00,40.8,17.2,29.77,SSW,213,6.0,12.0,38,0.01,,---,0.02,VWS V14.01,2013-02-23 20:51:00,
2013-02-23 13:56:00,40.6,16.4,29.77,SW,215,8.0,11.0,37,0.01,,---,0.02,VWS V14.01,2013-02-23 20:56:00,
2013-02-23 14:01:00,40.1,17.1,29.76,SW,228,5.0,15.0,39,0.02,,---,0.03,VWS V14.01,2013-02-23 21:01:00,
2013-02-23 14:06:00,40.2,16.6,29.76,SW,227,8.0,13.0,38,0.02,,---,0.03,VWS V14.01,2013-02-23 21:06:00,
2013-02-23 14:11:00,40.2,16.6,29.81,SW,227,9.0,15.0,38,0.02,,---,0.03,VWS V14.01,2013-02-23 21:11:00,
2013-02-23 14:16:00,40.2,17.2,29.80,SW,225,7.0,11.0,39,0.02,,---,0.03,VWS V14.01,2013-02-23 21:16:00,
2013-02-23 14:21:00,40.8,17.8,29.78,SW,225,9.0,14.0,39,0.02,,---,0.03,VWS V14.01,2013-02-23 21:21:00,
2013-02-23 14:26:00,41.1,18.6,29.78,SW,225,0.0,13.0,40,0.02,,---,0.03,VWS V14.01,2013-02-23 21:26:00,
2013-02-23 14:31:00,41.7,18.6,29.78,SW,225,8.0,9.0,39,0.02,,---,0.03,VWS V14.01,2013-02-23 21:31:00,
2013-02-23 14:36:00,41.7,18.6,29.78,SW,225,6.0,12.0,39,0.02,,---,0.03,VWS V14.01,2013-02-23 21:36:00,
2013-02-23 14:41:00,41.9,18.8,29.78,SW,225,0.0,9.0,39,0.01,,---,0.03,VWS V14.01,2013-02-23 21:41:00,
2013-02-23 14:46:00,42.1,17.7,29.78,SW,225,4.0,7.0,37,0.01,,---,0.03,VWS V14.01,2013-02-23 21:46:00,
2013-02-23 14:51:00,42.1,17.1,29.78,SW,225,1.0,8.0,36,0.01,,---,0.03,VWS V14.01,2013-02-23 21:51:00,
2013-02-23 14:56:00,42.5,18.7,29.77,SW,225,4.0,6.0,38,0.01,,---,0.03,VWS V14.01,2013-02-23 21:56:00,
2013-02-23 15:01:00,42.5,17.4,29.76,SW,225,5.0,5.0,36,0.00,,---,0.03,VWS V14.01,2013-02-23 22:01:00,
2013-02-23 15:06:00,42.4,17.4,29.78,SW,225,0.0,11.0,36,0.00,,---,0.03,VWS V14.01,2013-02-23 22:06:00,
2013-02-23 15:11:00,43.3,18.2,29.77,SW,225,1.0,2.0,36,0.00,,---,0.03,VWS V14.01,2013-02-23 22:11:00,
2013-02-23 15:16:00,42.9,17.8,29.77,SW,225,5.0,9.0,36,0.00,,---,0.03,VWS V14.01,2013-02-23 22:16:00,
2013-02-23 15:21:00,42.2,18.4,29.78,SW,225,7.0,7.0,38,0.00,,---,0.03,VWS V14.01,2013-02-23 22:21:00,
2013-02-23 15:26:00,42.0,17.0,29.78,SW,226,4.0,13.0,36,0.00,,---,0.03,VWS V14.01,2013-02-23 22:26:00,
2013-02-23 15:31:00,42.0,17.0,29.78,SW,225,3.0,9.0,36,0.00,,---,0.03,VWS V14.01,2013-02-23 22:31:00,
2013-02-23 15:36:00,42.4,18.0,29.78,SW,225,0.0,5.0,37,0.00,,---,0.03,VWS V14.01,2013-02-23 22:36:00,
2013-02-23 15:41:00,42.8,19.0,29.77,SW,225,1.0,1.0,38,0.00,,---,0.03,VWS V14.01,2013-02-23 22:41:00,
2013-02-23 15:46:00,43.1,18.6,29.77,SW,225,1.0,1.0,37,0.00,,---,0.03,VWS V14.01,2013-02-23 22:46:00,
2013-02-23 15:51:00,42.5,18.7,29.76,SW,229,7.0,7.0,38,0.01,,---,0.04,VWS V14.01,2013-02-23 22:51:00,
2013-02-23 15:56:00,41.3,18.8,29.78,WSW,244,8.0,11.0,40,0.01,,---,0.04,VWS V14.01,2013-02-23 22:56:00,
2013-02-23 16:01:00,40.3,17.9,29.80,WSW,242,11.0,11.0,40,0.01,,---,0.04,VWS V14.01,2013-02-23 23:01:00,
2013-02-23 16:06:00,40.1,18.3,29.78,WSW,242,5.0,7.0,41,0.01,,---,0.04,VWS V14.01,2013-02-23 23:06:00,
2013-02-23 16:11:00,39.6,17.3,29.78,WSW,240,11.0,11.0,40,0.01,,---,0.04,VWS V14.01,2013-02-23 23:11:00,
2013-02-23 16:16:00,39.3,17.6,29.80,WSW,240,5.0,5.0,41,0.01,,---,0.04,VWS V14.01,2013-02-23 23:16:00,
2013-02-23 16:21:00,39.2,18.0,29.80,WSW,240,6.0,6.0,42,0.01,,---,0.04,VWS V14.01,2013-02-23 23:21:00,
2013-02-23 16:26:00,39.1,18.0,29.80,WSW,239,6.0,6.0,42,0.01,,---,0.04,VWS V14.01,2013-02-23 23:26:00,
2013-02-23 16:31:00,38.4,17.3,29.79,SW,217,7.0,10.0,42,0.01,,---,0.04,VWS V14.01,2013-02-23 23:31:00,
2013-02-23 16:36:00,38.2,18.2,29.79,SW,217,4.0,8.0,44,0.01,,---,0.04,VWS V14.01,2013-02-23 23:36:00,
2013-02-23 16:41:00,38.2,17.1,29.78,SW,217,5.0,5.0,42,0.01,,---,0.04,VWS V14.01,2013-02-23 23:41:00,
2013-02-23 16:46:00,38.1,18.1,29.78,SW,217,1.0,4.0,44,0.01,,---,0.04,VWS V14.01,2013-02-23 23:46:00,
2013-02-23 16:51:00,38.0,18.0,29.77,SW,217,7.0,8.0,44,0.00,,---,0.04,VWS V14.01,2013-02-23 23:51:00,
2013-02-23 16:56:00,37.9,18.0,29.77,SW,217,8.0,8.0,44,0.00,,---,0.04,VWS V14.01,2013-02-23 23:56:00,
2013-02-23 17:01:00,37.8,18.9,29.77,SW,217,6.0,6.0,46,0.00,,---,0.04,VWS V14.01,2013-02-24 00:01:00,
2013-02-23 17:06:00,37.5,18.6,29.76,SW,217,1.0,3.0,46,0.00,,---,0.04,VWS V14.01,2013-02-24 00:06:00,
2013-02-23 17:11:00,36.7,18.4,29.76,SW,217,7.0,7.0,47,0.00,,---,0.04,VWS V14.01,2013-02-24 00:11:00,
2013-02-23 17:16:00,35.9,17.6,29.77,SW,217,1.0,5.0,47,0.00,,---,0.04,VWS V14.01,2013-02-24 00:16:00,
2013-02-23 17:21:00,35.2,17.5,29.77,SW,217,4.0,4.0,48,0.00,,---,0.04,VWS V14.01,2013-02-24 00:21:00,
2013-02-23 17:26:00,34.6,16.9,29.78,SW,217,1.0,4.0,48,0.00,,---,0.04,VWS V14.01,2013-02-24 00:26:00,
2013-02-23 17:31:00,34.4,16.8,29.80,SW,217,3.0,9.0,48,0.00,,---,0.04,VWS V14.01,2013-02-24 00:31:00,
2013-02-23 17:36:00,34.4,17.2,29.81,SW,217,6.0,8.0,49,0.00,,---,0.04,VWS V14.01,2013-02-24 00:36:00,
2013-02-23 17:41:00,34.6,16.9,29.80,SW,217,6.0,7.0,48,0.00,,---,0.04,VWS V14.01,2013-02-24 00:41:00,
2013-02-23 17:46:00,34.2,18.0,29.82,SW,217,0.0,0.0,51,0.00,,---,0.04,VWS V14.01,2013-02-24 00:46:00,
2013-02-23 17:51:00,33.2,17.0,29.82,SW,217,0.0,1.0,51,0.00,,---,0.04,VWS V14.01,2013-02-24 00:51:00,
2013-02-23 17:56:00,32.0,16.8,29.84,SW,217,1.0,2.0,53,0.00,,---,0.04,VWS V14.01,2013-02-24 00:56:00,
2013-02-23 18:01:00,31.3,16.6,29.84,SW,217,0.0,0.0,54,0.00,,---,0.04,VWS V14.01,2013-02-24 01:01:00,
2013-02-23 18:06:00,30.7,16.9,29.84,SW,217,0.0,0.0,56,0.00,,---,0.04,VWS V14.01,2013-02-24 01:06:00,
2013-02-23 18:11:00,30.6,16.8,29.84,SW,217,0.0,0.0,56,0.00,,---,0.04,VWS V14.01,2013-02-24 01:11:00,
2013-02-23 18:16:00,30.5,16.7,29.83,SW,217,0.0,0.0,56,0.00,,---,0.04,VWS V14.01,2013-02-24 01:16:00,
2013-02-23 18:21:00,30.5,16.7,29.84,SW,217,0.0,0.0,56,0.00,,---,0.04,VWS V14.01,2013-02-24 01:21:00,
2013-02-23 18:26:00,30.6,16.8,29.84,SW,217,3.0,10.0,56,0.00,,---,0.04,VWS V14.01,2013-02-24 01:26:00,
2013-02-23 18:31:00,31.1,16.4,29.84,SW,217,0.0,0.0,54,0.00,,---,0.04,VWS V14.01,2013-02-24 01:31:00,
2013-02-23 18:36:00,31.1,16.8,29.84,SW,217,1.0,1.0,55,0.00,,---,0.04,VWS V14.01,2013-02-24 01:36:00,
2013-02-23 18:41:00,30.4,16.6,29.84,SW,217,4.0,5.0,56,0.00,,---,0.04,VWS V14.01,2013-02-24 01:41:00,
2013-02-23 18:47:00,31.1,16.8,29.84,SW,217,1.0,6.0,55,0.00,,---,0.04,VWS V14.01,2013-02-24 01:47:00,
2013-02-23 18:52:00,30.7,16.9,29.84,SW,217,0.0,0.0,56,0.00,,---,0.04,VWS V14.01,2013-02-24 01:52:00,
2013-02-23 18:57:00,30.1,16.7,29.86,SW,217,0.0,0.0,57,0.00,,---,0.04,VWS V14.01,2013-02-24 01:57:00,
2013-02-23 19:02:00,29.7,16.8,29.85,SW,217,3.0,3.0,58,0.00,,---,0.04,VWS V14.01,2013-02-24 02:02:00,
2013-02-23 19:07:00,29.4,16.9,29.85,SW,217,1.0,1.0,59,0.00,,---,0.04,VWS V14.01,2013-02-24 02:07:00,
2013-02-23 19:12:00,30.3,17.3,29.82,SW,217,5.0,5.0,58,0.00,,---,0.04,VWS V14.01,2013-02-24 02:12:00,
2013-02-23 19:17:00,31.1,17.7,29.81,SW,217,6.0,6.0,57,0.00,,---,0.04,VWS V14.01,2013-02-24 02:17:00,
2013-02-23 19:22:00,32.0,18.1,29.81,SW,217,5.0,7.0,56,0.00,,---,0.04,VWS V14.01,2013-02-24 02:22:00,
2013-02-23 19:27:00,32.6,18.2,29.79,SW,217,6.0,6.0,55,0.00,,---,0.04,VWS V14.01,2013-02-24 02:27:00,
2013-02-23 19:32:00,32.7,18.8,29.79,SW,214,6.0,8.0,56,0.00,,---,0.04,VWS V14.01,2013-02-24 02:32:00,
2013-02-23 19:37:00,32.7,18.8,29.79,SW,214,4.0,5.0,56,0.00,,---,0.04,VWS V14.01,2013-02-24 02:37:00,
2013-02-23 19:42:00,32.3,18.8,29.81,SW,214,4.0,5.0,57,0.00,,---,0.04,VWS V14.01,2013-02-24 02:42:00,
2013-02-23 19:47:00,32.1,18.6,29.81,SW,214,4.0,6.0,57,0.00,,---,0.04,VWS V14.01,2013-02-24 02:47:00,
2013-02-23 19:52:00,32.2,18.7,29.81,SW,215,5.0,7.0,57,0.00,,---,0.04,VWS V14.01,2013-02-24 02:52:00,
2013-02-23 19:57:00,32.2,18.3,29.81,SW,215,1.0,6.0,56,0.00,,---,0.04,VWS V14.01,2013-02-24 02:57:00,
2013-02-23 20:02:00,32.4,18.0,29.81,SW,215,6.0,7.0,55,0.00,,---,0.04,VWS V14.01,2013-02-24 03:02:00,
2013-02-23 20:07:00,31.9,17.6,29.81,SW,215,1.0,2.0,55,0.00,,---,0.04,VWS V14.01,2013-02-24 03:07:00,
2013-02-23 20:12:00,31.6,18.1,29.72,SW,215,2.0,2.0,57,0.00,,---,0.04,VWS V14.01,2013-02-24 03:12:00,
2013-02-23 20:17:00,31.5,18.0,29.72,SW,215,0.0,0.0,57,0.00,,---,0.04,VWS V14.01,2013-02-24 03:17:00,
2013-02-23 20:22:00,31.1,17.7,29.74,SW,215,0.0,2.0,57,0.00,,---,0.04,VWS V14.01,2013-02-24 03:22:00,
2013-02-23 20:27:00,30.6,17.2,29.74,SW,215,0.0,1.0,57,0.00,,---,0.04,VWS V14.01,2013-02-24 03:27:00,
2013-02-23 20:32:00,30.1,17.1,29.74,SW,215,2.0,5.0,58,0.00,,---,0.04,VWS V14.01,2013-02-24 03:32:00,
2013-02-23 20:37:00,30.0,15.4,29.74,SW,215,4.0,5.0,54,0.00,,---,0.04,VWS V14.01,2013-02-24 03:37:00,
2013-02-23 20:42:00,30.3,15.2,29.74,SW,214,7.0,7.0,53,0.00,,---,0.04,VWS V14.01,2013-02-24 03:42:00,
2013-02-23 20:47:00,30.5,14.5,29.74,SW,215,6.0,8.0,51,0.00,,---,0.04,VWS V14.01,2013-02-24 03:47:00,
2013-02-23 20:52:00,30.3,14.4,29.74,SW,215,7.0,10.0,51,0.00,,---,0.04,VWS V14.01,2013-02-24 03:52:00,
2013-02-23 20:57:00,30.5,14.1,29.73,SW,215,7.0,9.0,50,0.00,,---,0.04,VWS V14.01,2013-02-24 03:57:00,
2013-02-23 21:02:00,30.5,14.5,29.74,SW,214,5.0,6.0,51,0.00,,---,0.04,VWS V14.01,2013-02-24 04:02:00,
2013-02-23 21:07:00,29.7,15.1,29.70,SW,215,0.0,4.0,54,0.00,,---,0.04,VWS V14.01,2013-02-24 04:07:00,
2013-02-23 21:12:00,29.0,14.4,29.72,SW,215,4.0,7.0,54,0.00,,---,0.04,VWS V14.01,2013-02-24 04:12:00,
2013-02-23 21:17:00,28.4,14.7,29.73,SW,215,2.0,5.0,56,0.00,,---,0.04,VWS V14.01,2013-02-24 04:17:00,
2013-02-23 21:22:00,27.9,14.2,29.73,SW,215,1.0,3.0,56,0.00,,---,0.04,VWS V14.01,2013-02-24 04:22:00,
2013-02-23 21:27:00,27.5,14.3,29.73,SW,215,0.0,4.0,57,0.00,,---,0.04,VWS V14.01,2013-02-24 04:27:00,
2013-02-23 21:32:00,27.0,14.6,29.74,SW,215,0.0,1.0,59,0.00,,---,0.04,VWS V14.01,2013-02-24 04:32:00,
2013-02-23 21:37:00,26.7,14.7,29.74,SW,215,0.0,1.0,60,0.00,,---,0.04,VWS V14.01,2013-02-24 04:37:00,
2013-02-23 21:42:00,26.5,14.9,29.74,SW,215,0.0,0.0,61,0.00,,---,0.04,VWS V14.01,2013-02-24 04:42:00,
2013-02-23 21:47:00,25.8,14.2,29.74,SW,215,2.0,4.0,61,0.00,,---,0.04,VWS V14.01,2013-02-24 04:47:00,
2013-02-23 21:52:00,25.4,13.8,29.76,SW,215,0.0,1.0,61,0.00,,---,0.04,VWS V14.01,2013-02-24 04:52:00,
2013-02-23 21:57:00,24.9,13.7,29.75,SW,215,0.0,0.0,62,0.00,,---,0.04,VWS V14.01,2013-02-24 04:57:00,
2013-02-23 22:00:00,24.8,13.6,29.75,SW,215,0.0,0.0,62,0.00,,---,0.04,VWS V14.01,2013-02-24 05:00:00,
2013-02-23 22:01:00,24.7,13.9,29.75,SW,215,0.0,0.0,63,0.00,,---,0.04,VWS V14.01,2013-02-24 05:01:00,
2013-02-23 22:02:00,24.7,13.9,29.75,SW,215,0.0,0.0,63,0.00,,---,0.04,VWS V14.01,2013-02-24 05:02:00,
2013-02-23 22:06:00,24.7,14.6,29.75,SW,215,0.0,0.0,65,0.00,,---,0.04,VWS V14.01,2013-02-24 05:06:00,
2013-02-23 22:11:00,24.9,14.8,29.70,SW,215,0.0,2.0,65,0.00,,---,0.04,VWS V14.01,2013-02-24 05:11:00,
2013-02-23 22:16:00,25.2,14.4,29.69,SW,215,0.0,0.0,63,0.00,,---,0.04,VWS V14.01,2013-02-24 05:16:00,
2013-02-23 22:21:00,25.3,14.8,29.70,SW,215,0.0,0.0,64,0.00,,---,0.04,VWS V14.01,2013-02-24 05:21:00,
2013-02-23 22:26:00,25.3,14.5,29.69,SW,215,0.0,0.0,63,0.00,,---,0.04,VWS V14.01,2013-02-24 05:26:00,
2013-02-23 22:31:00,25.3,14.5,29.69,SW,215,0.0,0.0,63,0.00,,---,0.04,VWS V14.01,2013-02-24 05:31:00,